[[{"header":{"parameterUnit":"m.s-1","parameterCategory":1,"la1":30.2991,"la2":30.254,"lo1":-89.0895,"lo2":-89.0444,"dy":0.0017,"dx":0.0017,"nx":28,"ny":28,"refTime":"2023-03-13T21:00:00:Z","depth":0,"parameterNumber":2,"parameterNumberName":"U-component_of_WINDS"},"data":[0,0,0,0,0,0,0,0,0,0,0,0,0,0,0,0,0,0,0,0,0,0,0,0,0,0,0,0,0,0,0,0,0,0,0,0,0,0,0,0,0,0,0,0,0,0,0,0,0,0,0,0,0,0,0,0,0,0,-1.5791,-1.5792,0,-1.5828,-1.5829,-1.5829,-1.5795,-1.5794,-1.5792,-1.5791,-1.583,-1.5832,-1.5834,0,0,0,0,0,0,0,0,0,0,0,0,0,-1.569,-1.5692,-1.5791,-1.5792,-1.5792,-1.5828,-1.5829,-1.5829,-1.5795,-1.5794,-1.5792,-1.579,-1.5829,-1.5832,-1.5835,0,0,0,0,0,0,0,0,0,0,0,0,0,-1.5731,-1.5693,-1.5791,-1.5779,-1.5779,-1.5828,-1.5829,-1.583,-1.5796,-1.5794,-1.5791,-1.579,-1.5828,-1.5831,-1.5835,-1.5898,0,0,-1.5846,-1.5847,0,0,0,0,0,0,0,0,-1.5729,-1.5735,-1.5781,-1.578,-1.578,-1.5805,-1.5807,-1.5853,-1.5796,-1.5789,-1.5791,-1.5789,-1.5823,-1.5827,-1.5839,-1.59,-1.5902,-1.5846,-1.5848,-1.585,-1.5851,0,0,0,0,0,0,0,-1.5726,-1.5733,-1.5806,-1.5781,-1.5781,-1.5772,-1.5776,-1.5816,-1.5817,-1.579,-1.5787,-1.5792,-1.5823,-1.5835,-1.5839,-1.5902,-1.5846,-1.5849,-1.5851,-1.5852,-1.6017,-1.6019,0,0,0,0,0,0,-1.5724,-1.5731,-1.5805,-1.5807,-1.5749,-1.5776,-1.578,-1.5799,-1.5817,-1.5818,-1.5794,-1.579,-1.583,-1.5835,-1.584,-1.5916,-1.5849,-1.5853,-1.5855,-1.6014,-1.6017,-1.602,0,0,0,0,0,0,-1.5722,-1.5731,-1.5803,-1.5768,-1.5777,-1.578,-1.5802,-1.5801,-1.5814,-1.582,-1.582,-1.5807,-1.5829,-1.5836,-1.5884,-1.5917,-1.5854,-1.5858,-1.6012,-1.6015,-1.6018,-1.6067,0,0,0,0,0,0,-1.572,-1.5731,-1.5755,-1.5769,-1.5779,-1.5846,-1.5804,-1.5803,-1.582,-1.5815,-1.5832,-1.5833,-1.5828,-1.5879,-1.5887,-1.592,-1.586,-1.6009,-1.6013,-1.6017,-1.6062,-1.6072,-1.6079,0,0,0,0,0,-1.5716,-1.5767,-1.5757,-1.5766,-1.5809,-1.5848,-1.5854,-1.5847,-1.5822,-1.5847,-1.5851,-1.5832,-1.5911,-1.5884,-1.5893,-1.5928,-1.6007,-1.6012,-1.6017,-1.6059,-1.607,-1.6079,0,0,0,0,0,0,-1.5758,-1.5769,-1.5757,-1.5815,-1.5831,-1.5842,-1.5873,-1.5859,-1.5882,-1.5878,-1.5868,-1.5872,-1.5923,-1.593,-1.5899,-1.599,-1.5955,-1.5962,-1.5984,-1.5994,-1.6002,-1.6,-1.5863,0,0,0,0,0,-1.5773,-1.5804,-1.5812,-1.5862,-1.5871,-1.5871,-1.5887,-1.588,-1.5897,-1.5904,-1.5911,-1.5928,-1.5956,-1.5975,-1.6002,-1.6063,-1.6066,-1.6091,-1.6099,-1.6106,-1.6113,-1.6145,-1.6157,-1.6036,-1.6036,-1.6036,0,0,-1.5807,-1.5816,-1.5837,-1.5871,-1.5882,-1.5915,-1.5877,-1.5912,-1.5936,-1.5909,-1.5955,-1.5961,-1.5979,-1.6034,-1.6058,-1.6041,-1.6146,-1.6113,-1.6118,-1.6121,-1.6152,-1.6163,-1.6173,-1.604,-1.6039,-1.6039,0,0,-1.5883,-1.5894,-1.5937,-1.5949,-1.5967,-1.5966,-1.5976,-1.599,-1.5993,-1.6039,-1.6019,-1.6047,-1.6096,-1.611,-1.6123,-1.6203,-1.6188,-1.6212,-1.6257,-1.6289,-1.6298,-1.6307,-1.6336,-1.6346,-1.6219,-1.6219,-1.6219,0,-1.5922,-1.597,-1.596,-1.5997,-1.6013,-1.5989,-1.6032,-1.6044,-1.607,-1.6082,-1.6062,-1.6123,-1.6133,-1.6191,-1.621,-1.6221,-1.6233,-1.6211,-1.6298,-1.6306,-1.6314,-1.6341,-1.6352,-1.6222,-1.6221,-1.6221,-1.6221,0,-1.6017,-1.605,-1.6083,-1.6108,-1.6127,-1.6167,-1.6163,-1.6183,-1.6174,-1.6175,-1.6222,-1.6233,-1.6262,-1.6275,-1.6266,-1.6331,-1.632,-1.6299,-1.6264,-1.6328,-1.6354,-1.6365,-1.6226,-1.6225,-1.6224,-1.6223,0,0,-1.6123,-1.6141,-1.6154,-1.6165,-1.6182,-1.6207,-1.6246,-1.6273,-1.6291,-1.6309,-1.6341,-1.6383,-1.6363,-1.6378,-1.6371,-1.6399,-1.6462,-1.6374,-1.6375,-1.6391,-1.6534,-1.6551,-1.6563,-1.6451,-1.6453,-1.6454,-1.6533,0,-1.6201,-1.6268,-1.626,-1.6324,-1.6355,-1.6332,-1.6365,-1.6379,-1.6381,-1.6407,-1.6408,-1.6438,-1.641,-1.6419,-1.6445,-1.6449,-1.6491,-1.6443,-1.6481,-1.6483,-1.6479,-1.6577,-1.6594,-1.6668,-1.6543,-1.6545,-1.6546,0,-1.6302,-1.6323,-1.639,-1.6402,-1.6415,-1.6445,-1.6469,-1.6494,-1.6509,-1.6509,-1.6525,-1.6512,-1.6551,-1.6514,-1.6566,-1.6534,-1.6549,-1.6553,-1.6555,-1.656,-1.6519,-1.6585,-1.6691,-1.6703,-1.6562,-1.656,-1.6559,0,-1.6373,-1.6419,-1.6465,-1.6475,-1.649,-1.6512,-1.6519,-1.6532,-1.6549,-1.6569,-1.658,-1.6605,-1.6619,-1.6638,-1.6633,-1.6607,-1.6687,-1.665,-1.6687,-1.6688,-1.6707,-1.6706,-1.6819,-1.6714,-1.6714,-1.6714,-1.6714,0,-1.6462,-1.6504,-1.6497,-1.6526,-1.6572,-1.6561,-1.6607,-1.6612,-1.6623,-1.6652,-1.6633,-1.666,-1.6651,-1.6677,-1.6673,-1.6717,-1.6723,-1.6724,-1.6723,-1.6726,-1.6727,-1.6737,-1.6732,-1.6717,-1.6716,-1.6716,-1.6715,0,-1.6551,-1.6547,-1.6596,-1.6606,-1.6609,-1.6643,-1.6651,-1.6678,-1.6677,-1.6714,-1.6722,-1.6721,-1.6752,-1.6747,-1.6781,-1.6778,-1.6833,-1.6825,-1.6829,-1.6827,-1.6866,-1.6862,-1.699,-1.7006,-1.6891,-1.6892,-1.6893,0,-1.6608,-1.664,-1.6653,-1.6671,-1.668,-1.6708,-1.6725,-1.6716,-1.6734,-1.6753,-1.6777,-1.6806,-1.6828,-1.6877,-1.688,-1.6905,-1.6898,-1.6941,-1.6902,-1.6905,-1.69,-1.6899,-1.6902,-1.6949,-1.6951,-1.6952,-1.6953,0,-1.6711,-1.6707,-1.6732,-1.6757,-1.6777,-1.6796,-1.6813,-1.6828,-1.682,-1.6841,-1.6872,-1.6889,-1.6923,-1.6952,-1.6975,-1.6982,-1.6967,-1.6965,-1.6975,-1.698,-1.6981,-1.6982,-1.6851,-1.6962,-1.6961,-1.6961,-1.696,-1.696,-1.6786,-1.6814,-1.6827,-1.6855,-1.6866,-1.6882,-1.6908,-1.691,-1.6935,-1.6962,-1.6955,-1.6989,-1.7003,-1.7033,-1.7042,-1.7069,-1.7053,-1.7068,-1.7072,-1.7076,-1.7081,-1.6975,-1.7073,-1.7073,-1.7073,-1.7073,-1.7072,0,-1.6889,-1.6896,-1.6922,-1.6946,-1.6968,-1.695,-1.6967,-1.6987,-1.7018,-1.7031,-1.7053,-1.7088,-1.7115,-1.712,-1.7145,-1.7166,-1.7159,-1.7173,-1.7172,-1.7174,-1.7093,-1.7082,-1.7178,-1.7178,-1.7178,-1.7178,-1.7178,-1.7178,-1.6945,-1.699,-1.6988,-1.7038,-1.7045,-1.7079,-1.709,-1.7104,-1.7115,-1.7155,-1.7177,-1.718,-1.7189,-1.7215,-1.7239,-1.724,-1.7251,-1.7268,-1.7265,-1.719,-1.718,-1.717,-1.7159,-1.727,-1.727,-1.7344,-1.7345,-1.7345]},{"header":{"parameterUnit":"m.s-1","parameterCategory":1,"la1":30.2991,"la2":30.254,"lo1":-89.0895,"lo2":-89.0444,"dy":0.0017,"dx":0.0017,"nx":28,"ny":28,"refTime":"2023-03-13T21:00:00:Z","depth":0,"parameterNumber":3,"parameterNumberName":"V-component_of_WINDS"},"data":[0,0,0,0,0,0,0,0,0,0,0,0,0,0,0,0,0,0,0,0,0,0,0,0,0,0,0,0,0,0,0,0,0,0,0,0,0,0,0,0,0,0,0,0,0,0,0,0,0,0,0,0,0,0,0,0,0,0,-7.7251,-7.7251,0,-7.7316,-7.7317,-7.7318,-7.7238,-7.7235,-7.7232,-7.7229,-7.729,-7.7294,-7.7299,0,0,0,0,0,0,0,0,0,0,0,0,0,-7.7051,-7.7055,-7.7251,-7.7251,-7.7252,-7.7316,-7.7317,-7.7318,-7.7239,-7.7235,-7.7231,-7.7228,-7.7289,-7.7294,-7.7299,0,0,0,0,0,0,0,0,0,0,0,0,0,-7.7129,-7.7056,-7.725,-7.7221,-7.7219,-7.7316,-7.7317,-7.7318,-7.7239,-7.7235,-7.7231,-7.7226,-7.7287,-7.7293,-7.73,-7.7428,0,0,-7.732,-7.7322,0,0,0,0,0,0,0,0,-7.7125,-7.7136,-7.7224,-7.7223,-7.7221,-7.7265,-7.7269,-7.7355,-7.724,-7.7231,-7.7229,-7.7224,-7.7285,-7.7291,-7.7313,-7.743,-7.7433,-7.732,-7.7324,-7.7327,-7.7329,0,0,0,0,0,0,0,-7.7119,-7.7133,-7.7276,-7.7225,-7.7223,-7.7202,-7.7208,-7.7285,-7.7281,-7.7232,-7.7226,-7.7235,-7.7283,-7.7307,-7.7314,-7.7434,-7.732,-7.7326,-7.733,-7.7332,-7.766,-7.7664,0,0,0,0,0,0,-7.7118,-7.7129,-7.7274,-7.7278,-7.7161,-7.7209,-7.7216,-7.7255,-7.7281,-7.728,-7.7239,-7.7231,-7.7298,-7.7306,-7.7316,-7.7467,-7.7327,-7.7333,-7.7337,-7.7655,-7.7661,-7.7666,0,0,0,0,0,0,-7.7114,-7.7132,-7.7272,-7.7202,-7.7218,-7.7217,-7.7261,-7.7258,-7.7282,-7.7286,-7.7285,-7.7264,-7.7295,-7.7306,-7.7401,-7.7468,-7.7336,-7.7342,-7.7649,-7.7657,-7.7663,-7.7772,0,0,0,0,0,0,-7.7109,-7.7131,-7.7181,-7.7204,-7.7222,-7.7358,-7.7265,-7.7263,-7.7294,-7.7285,-7.731,-7.7309,-7.7292,-7.7392,-7.7407,-7.7475,-7.7347,-7.7643,-7.7653,-7.7661,-7.7762,-7.7782,-7.7799,0,0,0,0,0,-7.7102,-7.7207,-7.7184,-7.7202,-7.7285,-7.7362,-7.7372,-7.7352,-7.73,-7.735,-7.7352,-7.7308,-7.7458,-7.7402,-7.7419,-7.7489,-7.7639,-7.765,-7.766,-7.7754,-7.7778,-7.7798,0,0,0,0,0,0,-7.7189,-7.721,-7.7184,-7.73,-7.7331,-7.7349,-7.741,-7.7378,-7.7422,-7.7411,-7.7382,-7.7388,-7.7489,-7.7498,-7.7435,-7.7615,-7.754,-7.7554,-7.7605,-7.7628,-7.7646,-7.7641,-7.7352,0,0,0,0,0,-7.7223,-7.7286,-7.7299,-7.74,-7.7417,-7.7412,-7.7444,-7.7426,-7.7455,-7.7467,-7.7476,-7.7504,-7.7557,-7.7593,-7.7642,-7.7763,-7.7767,-7.782,-7.7838,-7.7853,-7.7866,-7.7931,-7.7954,-7.7701,-7.7701,-7.7701,0,0,-7.7291,-7.731,-7.7351,-7.7419,-7.744,-7.7504,-7.7422,-7.7493,-7.754,-7.7476,-7.7567,-7.7575,-7.7604,-7.7713,-7.7761,-7.7724,-7.7937,-7.7867,-7.7879,-7.7884,-7.7944,-7.7968,-7.799,-7.7709,-7.7707,-7.7706,0,0,-7.7449,-7.747,-7.7557,-7.7581,-7.7615,-7.7611,-7.7632,-7.7655,-7.7659,-7.775,-7.7704,-7.7758,-7.785,-7.7873,-7.7897,-7.8065,-7.8026,-7.8082,-7.8177,-7.824,-7.826,-7.8278,-7.8338,-7.8359,-7.8094,-7.8095,-7.8095,0,-7.753,-7.7627,-7.7605,-7.7681,-7.7711,-7.766,-7.7747,-7.777,-7.7817,-7.7839,-7.7796,-7.7912,-7.7928,-7.8042,-7.8083,-7.8104,-7.8126,-7.8079,-7.8259,-7.8277,-7.8293,-7.8349,-7.8372,-7.8101,-7.81,-7.81,-7.8099,0,-7.7724,-7.7791,-7.7857,-7.7908,-7.7945,-7.8026,-7.8016,-7.8056,-7.8035,-7.8035,-7.8128,-7.8145,-7.8198,-7.8223,-7.8202,-7.8334,-7.831,-7.8264,-7.8188,-7.8324,-7.8377,-7.8398,-7.8111,-7.8108,-7.8106,-7.8105,0,0,-7.7938,-7.7977,-7.8002,-7.8024,-7.8058,-7.8109,-7.8187,-7.824,-7.8276,-7.831,-7.8374,-7.8454,-7.8412,-7.844,-7.8421,-7.8476,-7.8609,-7.8424,-7.8424,-7.8458,-7.8755,-7.8789,-7.8815,-7.8583,-7.8587,-7.8591,-7.8752,0,-7.8097,-7.8235,-7.8218,-7.8349,-7.8411,-7.8363,-7.8431,-7.8458,-7.846,-7.8511,-7.8511,-7.8569,-7.851,-7.8526,-7.8579,-7.8582,-7.8668,-7.8569,-7.8641,-7.8644,-7.8636,-7.8843,-7.8879,-7.9031,-7.8773,-7.8776,-7.8779,0,-7.83,-7.8345,-7.8483,-7.8509,-7.8534,-7.8596,-7.8644,-7.8694,-7.8723,-7.872,-7.8752,-7.8723,-7.8799,-7.8723,-7.8827,-7.876,-7.8788,-7.8794,-7.8799,-7.8805,-7.872,-7.8854,-7.9079,-7.9102,-7.8811,-7.8809,-7.8806,0,-7.8444,-7.8538,-7.8633,-7.8654,-7.8686,-7.873,-7.8745,-7.8771,-7.8804,-7.8845,-7.8866,-7.8915,-7.8941,-7.8979,-7.8964,-7.8909,-7.9071,-7.8992,-7.907,-7.907,-7.9106,-7.9104,-7.9338,-7.9124,-7.9124,-7.9123,-7.9123,0,-7.8623,-7.8709,-7.8698,-7.8757,-7.8852,-7.8831,-7.8925,-7.8933,-7.8957,-7.9015,-7.8975,-7.9029,-7.9006,-7.9059,-7.9047,-7.9135,-7.9147,-7.9146,-7.9142,-7.915,-7.915,-7.9168,-7.9157,-7.9129,-7.9128,-7.9127,-7.9126,0,-7.8799,-7.8795,-7.8896,-7.8919,-7.8927,-7.8996,-7.9014,-7.9068,-7.9067,-7.9141,-7.9157,-7.9155,-7.9215,-7.9203,-7.9269,-7.9261,-7.9371,-7.9354,-7.9362,-7.9358,-7.9436,-7.9429,-7.9691,-7.9724,-7.9488,-7.949,-7.9492,0,-7.8914,-7.898,-7.9011,-7.9048,-7.9067,-7.9127,-7.9162,-7.9144,-7.9181,-7.922,-7.9269,-7.9326,-7.9371,-7.9469,-7.9472,-7.9522,-7.9505,-7.9593,-7.9512,-7.9518,-7.9507,-7.9503,-7.951,-7.9609,-7.9612,-7.9614,-7.9616,0,-7.9118,-7.9114,-7.9167,-7.922,-7.9263,-7.9303,-7.9338,-7.9371,-7.9355,-7.9399,-7.9462,-7.9496,-7.9565,-7.9621,-7.9668,-7.968,-7.9646,-7.9642,-7.9662,-7.9671,-7.9674,-7.9674,-7.9407,-7.9636,-7.9634,-7.9632,-7.9631,-7.963,-7.9267,-7.9324,-7.9356,-7.9416,-7.9441,-7.9476,-7.9528,-7.9535,-7.9588,-7.9643,-7.9629,-7.9699,-7.9726,-7.9786,-7.9804,-7.9858,-7.9825,-7.9854,-7.9862,-7.987,-7.988,-7.9665,-7.9866,-7.9865,-7.9865,-7.9864,-7.9864,0,-7.947,-7.9489,-7.9544,-7.9597,-7.9645,-7.961,-7.9648,-7.9689,-7.9753,-7.9782,-7.9828,-7.9899,-7.9954,-7.9962,-8.0014,-8.0056,-8.0041,-8.007,-8.0066,-8.007,-7.9906,-7.9883,-8.0081,-8.0081,-8.0081,-8.0081,-8.0081,-8.0081,-7.9581,-7.9676,-7.9675,-7.9781,-7.9797,-7.9869,-7.9893,-7.9924,-7.9948,-8.0031,-8.0077,-8.0083,-8.0104,-8.0157,-8.0205,-8.0206,-8.0227,-8.0262,-8.0257,-8.0103,-8.0081,-8.0061,-8.0039,-8.0267,-8.0267,-8.0416,-8.0418,-8.0419]}]]